Time,TemperatureF,DewpointF,PressureIn,WindDirection,WindDirectionDegrees,WindSpeedMPH,WindSpeedGustMPH,Humidity,HourlyPrecipIn,Conditions,Clouds,dailyrainin,SoftwareType,DateUTC
2013-10-14 00:05:00,42.7,37.0,30.45,NNE,17,0.0,0.0,80,0.00,,,0.00,weatherlink.com 1.10,2013-10-14 05:05:00,
2013-10-14 00:20:00,42.5,35.0,30.45,NNE,17,0.0,0.0,76,0.00,,,0.00,weatherlink.com 1.10,2013-10-14 05:20:00,
2013-10-14 00:35:00,42.5,34.0,30.45,NNE,17,0.0,0.0,73,0.00,,,0.00,weatherlink.com 1.10,2013-10-14 05:35:00,
2013-10-14 00:50:00,44.9,34.0,30.45,NNE,17,0.0,0.0,67,0.00,,,0.00,weatherlink.com 1.10,2013-10-14 05:50:00,
2013-10-14 01:05:00,45.5,34.0,30.45,NNE,17,0.0,0.0,65,0.00,,,0.00,weatherlink.com 1.10,2013-10-14 06:05:00,
2013-10-14 01:20:00,45.1,34.0,30.46,NNE,17,0.0,1.0,66,0.00,,,0.00,weatherlink.com 1.10,2013-10-14 06:20:00,
2013-10-14 01:35:00,43.5,34.0,30.45,NNE,17,0.0,1.0,70,0.00,,,0.00,weatherlink.com 1.10,2013-10-14 06:35:00,
2013-10-14 01:50:00,42.7,35.0,30.45,NNE,17,0.0,0.0,73,0.00,,,0.00,weatherlink.com 1.10,2013-10-14 06:50:00,
2013-10-14 02:05:00,42.0,35.0,30.45,NNE,17,0.0,0.0,75,0.00,,,0.00,weatherlink.com 1.10,2013-10-14 07:05:00,
2013-10-14 02:21:00,41.5,34.0,30.46,NNE,17,0.0,1.0,76,0.00,,,0.00,weatherlink.com 1.10,2013-10-14 07:21:00,
2013-10-14 02:36:00,41.0,35.0,30.46,NNE,17,0.0,0.0,80,0.00,,,0.00,weatherlink.com 1.10,2013-10-14 07:36:00,
2013-10-14 02:51:00,40.3,35.0,30.46,NNE,17,0.0,0.0,81,0.00,,,0.00,weatherlink.com 1.10,2013-10-14 07:51:00,
2013-10-14 03:06:00,40.2,35.0,30.46,NNE,17,0.0,0.0,81,0.00,,,0.00,weatherlink.com 1.10,2013-10-14 08:06:00,
2013-10-14 03:21:00,40.5,35.0,30.46,NNE,17,0.0,2.0,80,0.00,,,0.00,weatherlink.com 1.10,2013-10-14 08:21:00,
2013-10-14 03:36:00,40.2,35.0,30.46,NNE,17,0.0,0.0,81,0.00,,,0.00,weatherlink.com 1.10,2013-10-14 08:36:00,
2013-10-14 03:51:00,40.3,35.0,30.46,NNE,17,0.0,1.0,81,0.00,,,0.00,weatherlink.com 1.10,2013-10-14 08:51:00,
2013-10-14 04:06:00,40.8,35.0,30.46,NNE,17,1.0,2.0,79,0.00,,,0.00,weatherlink.com 1.10,2013-10-14 09:06:00,
2013-10-14 04:21:00,40.7,35.0,30.46,NNE,17,2.0,2.0,79,0.00,,,0.00,weatherlink.com 1.10,2013-10-14 09:21:00,
2013-10-14 04:36:00,40.2,35.0,30.46,NNE,17,1.0,2.0,80,0.00,,,0.00,weatherlink.com 1.10,2013-10-14 09:36:00,
2013-10-14 04:51:00,40.0,34.0,30.45,NNE,17,0.0,2.0,80,0.00,,,0.00,weatherlink.com 1.10,2013-10-14 09:51:00,
2013-10-14 05:06:00,39.7,34.0,30.45,NNE,18,1.0,3.0,80,0.00,,,0.00,weatherlink.com 1.10,2013-10-14 10:06:00,
2013-10-14 05:21:00,39.3,34.0,30.45,NNE,19,0.0,2.0,81,0.00,,,0.00,weatherlink.com 1.10,2013-10-14 10:21:00,
2013-10-14 05:36:00,38.1,34.0,30.45,NNE,19,1.0,3.0,84,0.00,,,0.00,weatherlink.com 1.10,2013-10-14 10:36:00,
2013-10-14 05:51:00,37.9,34.0,30.45,NNE,19,2.0,3.0,85,0.00,,,0.00,weatherlink.com 1.10,2013-10-14 10:51:00,
2013-10-14 06:06:00,38.0,34.0,30.45,NNE,21,0.0,3.0,85,0.00,,,0.00,weatherlink.com 1.10,2013-10-14 11:06:00,
2013-10-14 06:21:00,37.9,34.0,30.45,NNE,21,1.0,2.0,86,0.00,,,0.00,weatherlink.com 1.10,2013-10-14 11:21:00,
2013-10-14 06:36:00,37.7,34.0,30.45,NNE,21,0.0,1.0,86,0.00,,,0.00,weatherlink.com 1.10,2013-10-14 11:36:00,
2013-10-14 06:51:00,37.9,34.0,30.45,NNE,21,0.0,0.0,87,0.00,,,0.00,weatherlink.com 1.10,2013-10-14 11:51:00,
2013-10-14 07:06:00,37.9,34.0,30.45,NNE,21,0.0,0.0,87,0.00,,,0.00,weatherlink.com 1.10,2013-10-14 12:06:00,
2013-10-14 07:21:00,37.7,35.0,30.45,NNE,21,0.0,0.0,88,0.00,,,0.00,weatherlink.com 1.10,2013-10-14 12:21:00,
2013-10-14 07:36:00,38.1,35.0,30.45,NNE,21,0.0,0.0,88,0.00,,,0.00,weatherlink.com 1.10,2013-10-14 12:36:00,
2013-10-14 07:51:00,38.2,35.0,30.45,NNE,21,0.0,0.0,88,0.00,,,0.00,weatherlink.com 1.10,2013-10-14 12:51:00,
2013-10-14 08:06:00,38.4,35.0,30.45,NNE,21,0.0,0.0,87,0.00,,,0.00,weatherlink.com 1.10,2013-10-14 13:06:00,
2013-10-14 08:21:00,39.4,36.0,30.44,NNE,21,0.0,0.0,87,0.00,,,0.00,weatherlink.com 1.10,2013-10-14 13:21:00,
2013-10-14 08:36:00,40.8,37.0,30.44,NNE,21,0.0,0.0,87,0.00,,,0.00,weatherlink.com 1.10,2013-10-14 13:36:00,
2013-10-14 08:51:00,42.7,39.0,30.44,NNE,21,0.0,0.0,86,0.00,,,0.00,weatherlink.com 1.10,2013-10-14 13:51:00,
2013-10-14 09:06:00,45.1,40.0,30.44,NNE,17,0.0,3.0,82,0.00,,,0.00,weatherlink.com 1.10,2013-10-14 14:06:00,
2013-10-14 09:21:00,47.4,41.0,30.44,East,98,0.0,2.0,79,0.00,,,0.00,weatherlink.com 1.10,2013-10-14 14:21:00,
2013-10-14 09:36:00,48.8,41.0,30.44,NE,53,0.0,2.0,75,0.00,,,0.00,weatherlink.com 1.10,2013-10-14 14:36:00,
2013-10-14 09:51:00,50.6,43.0,30.44,ESE,105,0.0,1.0,74,0.00,,,0.00,weatherlink.com 1.10,2013-10-14 14:51:00,
2013-10-14 10:21:00,54.0,42.0,30.43,NNW,335,0.0,5.0,63,0.00,,,0.00,weatherlink.com 1.10,2013-10-14 15:21:00,
2013-10-14 10:36:00,55.4,42.0,30.43,SE,131,0.0,4.0,62,0.00,,,0.00,weatherlink.com 1.10,2013-10-14 15:36:00,
2013-10-14 10:52:00,56.6,44.0,30.43,ESE,123,0.0,4.0,62,0.00,,,0.00,weatherlink.com 1.10,2013-10-14 15:52:00,
2013-10-14 11:07:00,57.5,44.0,30.42,SE,128,2.0,5.0,61,0.00,,,0.00,weatherlink.com 1.10,2013-10-14 16:07:00,
2013-10-14 11:22:00,57.9,44.0,30.41,East,101,3.0,7.0,60,0.00,,,0.00,weatherlink.com 1.10,2013-10-14 16:22:00,
2013-10-14 11:37:00,58.5,44.0,30.40,East,91,1.0,7.0,60,0.00,,,0.00,weatherlink.com 1.10,2013-10-14 16:37:00,
2013-10-14 11:52:00,59.1,44.0,30.40,SE,143,1.0,6.0,58,0.00,,,0.00,weatherlink.com 1.10,2013-10-14 16:52:00,
2013-10-14 12:07:00,59.9,44.0,30.39,ESE,103,0.0,4.0,56,0.00,,,0.00,weatherlink.com 1.10,2013-10-14 17:07:00,
2013-10-14 12:22:00,59.6,44.0,30.37,ENE,71,0.0,8.0,57,0.00,,,0.00,weatherlink.com 1.10,2013-10-14 17:22:00,
2013-10-14 12:37:00,60.4,45.0,30.37,East,82,2.0,5.0,57,0.00,,,0.00,weatherlink.com 1.10,2013-10-14 17:37:00,
2013-10-14 12:52:00,60.4,45.0,30.36,East,99,0.0,6.0,58,0.00,,,0.00,weatherlink.com 1.10,2013-10-14 17:52:00,
2013-10-14 13:07:00,60.6,46.0,30.34,ESE,119,3.0,7.0,58,0.00,,,0.00,weatherlink.com 1.10,2013-10-14 18:07:00,
2013-10-14 13:22:00,60.7,44.0,30.33,SSE,148,2.0,7.0,54,0.00,,,0.00,weatherlink.com 1.10,2013-10-14 18:22:00,
2013-10-14 13:37:00,61.3,44.0,30.32,East,82,1.0,7.0,53,0.00,,,0.00,weatherlink.com 1.10,2013-10-14 18:37:00,
2013-10-14 13:52:00,61.8,44.0,30.31,SSE,154,3.0,8.0,53,0.00,,,0.00,weatherlink.com 1.10,2013-10-14 18:52:00,
2013-10-14 14:07:00,62.1,45.0,30.30,ESE,121,2.0,6.0,53,0.00,,,0.00,weatherlink.com 1.10,2013-10-14 19:07:00,
2013-10-14 14:22:00,62.2,45.0,30.30,SSE,162,0.0,8.0,53,0.00,,,0.00,weatherlink.com 1.10,2013-10-14 19:22:00,
2013-10-14 14:37:00,62.2,44.0,30.29,East,83,3.0,7.0,51,0.00,,,0.00,weatherlink.com 1.10,2013-10-14 19:37:00,
2013-10-14 14:52:00,62.6,45.0,30.28,SE,126,3.0,5.0,52,0.00,,,0.00,weatherlink.com 1.10,2013-10-14 19:52:00,
2013-10-14 15:07:00,62.8,43.0,30.27,ESE,113,3.0,8.0,48,0.00,,,0.00,weatherlink.com 1.10,2013-10-14 20:07:00,
2013-10-14 15:22:00,62.5,44.0,30.26,ESE,113,2.0,8.0,51,0.00,,,0.00,weatherlink.com 1.10,2013-10-14 20:22:00,
2013-10-14 15:37:00,62.8,43.0,30.25,ENE,74,4.0,6.0,49,0.00,,,0.00,weatherlink.com 1.10,2013-10-14 20:37:00,
2013-10-14 15:52:00,61.9,43.0,30.25,East,88,1.0,3.0,51,0.00,,,0.00,weatherlink.com 1.10,2013-10-14 20:52:00,
2013-10-14 16:08:00,61.4,43.0,30.24,East,82,2.0,3.0,52,0.00,,,0.00,weatherlink.com 1.10,2013-10-14 21:08:00,
2013-10-14 16:22:00,61.7,43.0,30.24,East,94,2.0,6.0,51,0.00,,,0.00,weatherlink.com 1.10,2013-10-14 21:22:00,
2013-10-14 16:38:00,61.8,43.0,30.23,ESE,109,0.0,7.0,51,0.00,,,0.00,weatherlink.com 1.10,2013-10-14 21:38:00,
2013-10-14 16:53:00,62.2,43.0,30.22,East,87,0.0,5.0,49,0.00,,,0.00,weatherlink.com 1.10,2013-10-14 21:53:00,
2013-10-14 17:08:00,61.7,44.0,30.22,East,101,0.0,3.0,52,0.00,,,0.00,weatherlink.com 1.10,2013-10-14 22:08:00,
2013-10-14 17:23:00,61.3,43.0,30.23,SE,126,2.0,4.0,51,0.00,,,0.00,weatherlink.com 1.10,2013-10-14 22:23:00,
2013-10-14 17:38:00,60.6,42.0,30.23,ESE,109,1.0,5.0,51,0.00,,,0.00,weatherlink.com 1.10,2013-10-14 22:38:00,
2013-10-14 17:53:00,59.6,43.0,30.22,SE,128,0.0,3.0,54,0.00,,,0.00,weatherlink.com 1.10,2013-10-14 22:53:00,
2013-10-14 18:08:00,58.4,43.0,30.23,ESE,120,0.0,3.0,57,0.00,,,0.00,weatherlink.com 1.10,2013-10-14 23:08:00,
2013-10-14 18:23:00,57.2,43.0,30.23,ESE,119,0.0,2.0,60,0.00,,,0.00,weatherlink.com 1.10,2013-10-14 23:23:00,
2013-10-14 18:38:00,56.3,43.0,30.23,ESE,117,0.0,4.0,62,0.00,,,0.00,weatherlink.com 1.10,2013-10-14 23:38:00,
2013-10-14 18:53:00,55.7,43.0,30.22,East,98,1.0,3.0,63,0.00,,,0.00,weatherlink.com 1.10,2013-10-14 23:53:00,
2013-10-14 19:08:00,55.0,43.0,30.22,East,86,0.0,2.0,65,0.00,,,0.00,weatherlink.com 1.10,2013-10-15 00:08:00,
2013-10-14 19:23:00,54.4,44.0,30.20,ENE,66,0.0,3.0,67,0.00,,,0.00,weatherlink.com 1.10,2013-10-15 00:23:00,
2013-10-14 19:38:00,53.6,44.0,30.20,ENE,71,2.0,3.0,69,0.00,,,0.00,weatherlink.com 1.10,2013-10-15 00:38:00,
2013-10-14 19:53:00,53.0,43.0,30.20,East,84,0.0,5.0,70,0.00,,,0.00,weatherlink.com 1.10,2013-10-15 00:53:00,
2013-10-14 20:23:00,52.0,43.0,30.20,ENE,59,1.0,5.0,72,0.00,,,0.00,weatherlink.com 1.10,2013-10-15 01:23:00,
2013-10-14 20:38:00,51.3,43.0,30.19,ENE,73,0.0,3.0,74,0.00,,,0.00,weatherlink.com 1.10,2013-10-15 01:38:00,
2013-10-14 20:53:00,50.6,43.0,30.20,NNE,25,0.0,4.0,75,0.00,,,0.00,weatherlink.com 1.10,2013-10-15 01:53:00,
2013-10-14 21:08:00,50.1,43.0,30.20,East,88,2.0,4.0,77,0.00,,,0.00,weatherlink.com 1.10,2013-10-15 02:08:00,
2013-10-14 21:23:00,49.7,43.0,30.20,North,5,0.0,3.0,78,0.00,,,0.00,weatherlink.com 1.10,2013-10-15 02:23:00,
2013-10-14 21:38:00,49.3,43.0,30.19,ENE,78,1.0,5.0,80,0.00,,,0.00,weatherlink.com 1.10,2013-10-15 02:38:00,
2013-10-14 21:53:00,49.1,43.0,30.18,ENE,66,1.0,6.0,80,0.00,,,0.00,weatherlink.com 1.10,2013-10-15 02:53:00,
2013-10-14 22:23:00,49.0,44.0,30.17,ENE,77,1.0,3.0,82,0.00,,,0.00,weatherlink.com 1.10,2013-10-15 03:23:00,
2013-10-14 22:38:00,48.9,44.0,30.16,East,86,1.0,5.0,83,0.00,,,0.00,weatherlink.com 1.10,2013-10-15 03:38:00,
2013-10-14 22:53:00,48.9,44.0,30.15,East,94,2.0,6.0,84,0.00,,,0.00,weatherlink.com 1.10,2013-10-15 03:53:00,
2013-10-14 23:08:00,49.0,45.0,30.15,East,97,3.0,3.0,85,0.00,,,0.00,weatherlink.com 1.10,2013-10-15 04:08:00,
2013-10-14 23:23:00,49.1,45.0,30.14,East,93,2.0,5.0,85,0.00,,,0.00,weatherlink.com 1.10,2013-10-15 04:23:00,
2013-10-14 23:38:00,49.4,45.0,30.14,East,99,2.0,6.0,85,0.00,,,0.00,weatherlink.com 1.10,2013-10-15 04:38:00,
2013-10-14 23:53:00,49.2,45.0,30.13,East,96,1.0,6.0,86,0.00,,,0.00,weatherlink.com 1.10,2013-10-15 04:53:00,